Home > Weather > Görlitz > Past weeks

Flag for Germany Past Weather in Görlitz, Saxony, Germany — Yesterday and Last 2 Weeks

Now
67 °F

Partly sunny.


Feels Like: 67 °F
Forecast: 58 / 78 °F
Wind: 1 mph from East

Location: Liberec

Current Time: Jun 28, 2016 at 1:44:23 PM

Latest Report: Jun 28, 2016 at 1:00 PM


Visibility: 19 mi

Pressure: 30.04 "Hg

Humidity: 57%

Dew Point: 51 °F

Location of GörlitzLocation

Past Weather in Görlitz — Graph

°F

Görlitz Temperature Yesterday

Maximum temperature yesterday: 65 °F (at 12:00 PM)
Minimum temperature yesterday: 52 °F (at 11:00 PM)
Average temperature yesterday: 60 °F

High & Low Weather Summary for the Past Weeks

 TemperatureHumidityPressure
High87 °F (Jun 24, 4:00 PM)99% (Jun 19, 5:00 AM)30.30 "Hg (Jun 19, 5:00 AM)
Low46 °F (Jun 19, 5:00 AM)32% (Jun 24, 4:00 PM)29.44 "Hg (Jun 17, 5:00 AM)
Average63 °F75%29.94 "Hg
* Reported Jun 13 12:00 PM — Jun 28 12:00 PM, Görlitz, Weather by CustomWeather, © 2016

Note: Actual official high and low records may vary slightly from our data, if they occured in-between our weather recording intervals... More about our weather records

Advertising

Görlitz Weather History for the Previous 24 Hours

Scroll right to see more
 ConditionsComfort  
Time TempWeatherWind HumidityBarometerVisibility
12:00 PM
Tue, Jun 28
66 °FPartly sunny.2 mph55%30.06 "Hg19 mi
11:00 AM64 °FPartly sunny.1 mph63%30.07 "Hg19 mi
10:00 AM62 °FOvercast.1 mph73%30.08 "Hg19 mi
9:00 AM60 °FOvercast.1 mph77%30.08 "Hg16 mi
8:00 AM60 °FOvercast.1 mph76%30.07 "Hg16 mi
7:00 AM56 °FCool.1 mph85%30.09 "Hg12 mi
6:00 AM52 °FCool.1 mph98%30.10 "Hg9 mi
5:00 AM49 °FRain showers. Cloudy.1 mph97%30.11 "Hg0 mi
4:00 AM48 °FDrizzle. Overcast.1 mph97%30.11 "Hg0 mi
3:00 AM51 °FCool.1 mph97%30.11 "Hg6 mi
2:00 AM53 °FCool.1 mph97%30.11 "Hg7 mi
12:00 AM50 °FRain showers. Overcast.1 mph95%30.11 "Hg1 mi
11:00 PM
Mon, Jun 27
52 °FPassing clouds.1 mph95%30.11 "Hg7 mi
10:00 PM56 °FPassing clouds.1 mph94%30.09 "Hg12 mi
9:00 PM56 °FPartly sunny.1 mph92%30.08 "Hg25 mi
8:00 PM57 °FSprinkles. Overcast.2 mph84%30.09 "Hg10 mi
7:00 PM63 °FMild.1 mph71%30.06 "Hg12 mi
6:00 PM63 °FMild.2 mph76%30.05 "Hg12 mi
5:00 PM63 °FOvercast.1 mph73%30.06 "Hg25 mi
4:00 PM63 °FOvercast.2 mph72%30.06 "Hg25 mi
3:00 PM64 °FOvercast.2 mph68%30.06 "Hg22 mi
2:00 PM62 °FOvercast.2 mph69%30.08 "Hg16 mi
1:00 PM64 °FOvercast.2 mph62%30.08 "Hg9 mi
Weather by CustomWeather, © 2016

See weather overviewHow to use our weather pages